Theta_e
326 323 318 316 315 313 312 311 300 302 300 296 296 299 298 303 303 303 303 307 310 324 326 326 326 325 321 320 322 322 322 321 320 312 312 327 339 341 343 344 345 346 346 350 352 354 355 354 353 352 352 352 352 352 352 352 353 353 354 354 354 353 353 353 353 353 353 353 353 352 352 351 351 352 353 353 353 353 352 352 352 351 351 350 350 350 350 350 350 350 350 350 349 348 348 347 346
323 318 318 317 313 311 307 305 302 299 299 296 297 298 300 303 303 302 302 305 315 323 327 326 327 327 326 324 324 324 322 324 324 327 335 337 339 341 343 346 347 346 347 350 353 354 353 352 353 353 352 351 352 352 352 352 353 354 354 354 354 354 353 353 353 353 353 352 351 352 351 350 350 351 352 353 352 353 353 351 351 350 350 350 349 350 350 350 349 349 349 350 349 348 348 346 346
319 318 316 312 311 310 307 306 298 297 295 293 297 299 302 301 301 303 304 306 320 327 328 326 326 325 324 323 320 319 320 332 333 336 335 337 335 337 343 346 348 348 349 351 353 353 351 351 353 352 352 351 352 352 352 353 353 353 353 354 354 354 353 353 353 353 352 352 351 351 351 350 350 350 351 352 352 352 353 352 351 350 350 350 350 350 350 349 349 349 349 350 349 347 347 346 346
312 322 314 309 306 309 305 302 300 297 294 296 296 300 300 301 302 304 305 307 308 314 324 325 323 326 325 320 320 327 326 331 336 336 333 333 336 341 344 346 348 348 349 351 352 352 352 352 353 352 352 351 351 351 351 353 353 354 354 354 353 354 353 353 353 352 352 351 351 351 351 351 351 350 350 351 352 352 351 351 351 350 348 347 347 348 349 349 349 348 349 349 349 347 346 346 346
311 315 312 308 306 303 303 299 298 298 294 297 295 301 301 302 304 304 305 305 306 310 315 321 321 329 331 326 327 323 330 336 336 338 337 338 343 343 345 345 346 346 348 351 352 352 352 351 353 352 352 351 351 352 352 353 353 353 353 353 353 353 353 353 353 352 351 350 350 350 350 350 350 350 350 351 350 350 350 350 350 350 350 348 347 347 347 348 348 348 348 348 347 347 347 347 346
310 314 312 312 304 306 302 297 296 296 300 300 297 301 303 304 304 304 305 305 306 305 306 306 313 321 322 329 334 332 335 331 337 338 338 338 343 345 345 346 346 346 348 351 352 351 351 352 352 352 352 352 351 352 353 353 353 353 353 353 354 353 353 353 352 351 350 350 350 349 349 349 349 349 349 350 349 349 349 349 349 349 349 350 349 348 347 347 346 347 347 348 348 347 346 346 346
310 310 310 306 304 305 299 297 297 297 300 300 300 302 304 303 304 303 304 304 306 306 311 306 319 319 309 329 334 336 339 339 339 339 341 341 344 345 346 345 345 345 348 350 351 352 350 352 352 352 352 351 351 352 353 353 353 353 353 353 353 353 353 352 351 351 350 349 349 348 348 348 347 348 349 349 350 350 349 349 349 349 350 349 348 348 348 348 346 346 346 346 346 346 346 346 346
310 307 305 302 299 299 296 297 297 298 299 299 302 301 305 304 303 303 303 302 303 304 319 325 322 305 308 328 319 336 339 340 340 343 343 342 343 344 345 344 343 344 345 349 351 352 353 352 352 352 352 351 351 352 353 353 353 353 353 353 353 352 352 351 351 350 349 348 347 347 346 346 346 347 348 349 349 349 349 348 348 350 349 348 348 347 347 347 347 345 344 344 345 345 345 346 346
310 309 303 301 297 296 296 296 297 297 298 297 299 301 309 305 304 303 302 303 303 304 305 311 324 306 313 326 326 336 337 340 341 343 343 343 342 344 344 345 343 343 345 346 350 353 352 352 352 352 351 351 352 352 353 353 353 353 353 353 352 352 351 350 350 348 347 346 345 346 346 346 346 346 346 346 348 348 348 348 348 348 348 347 347 346 346 346 346 346 345 344 345 344 344 344 345
307 305 301 301 299 294 295 295 294 298 298 301 302 304 303 303 303 304 303 302 304 308 308 323 325 309 321 318 328 334 335 339 341 341 342 343 344 344 345 345 346 344 343 346 350 351 351 352 352 352 351 352 352 352 353 353 353 353 352 352 352 351 351 349 348 347 346 345 345 345 345 345 345 345 345 345 345 347 347 348 347 347 346 346 345 345 345 346 346 346 346 346 346 345 344 343 344
302 304 303 299 295 294 293 295 296 298 297 299 300 302 303 302 302 301 302 303 303 303 306 324 321 320 322 323 330 334 337 339 339 337 341 343 344 343 343 346 346 345 344 348 351 350 351 351 352 352 352 352 352 353 353 353 353 353 352 351 351 350 349 348 347 346 346 345 345 344 344 343 343 343 343 343 343 344 345 346 346 346 346 345 344 343 344 345 345 345 346 346 346 346 345 345 345
301 300 299 296 295 295 295 296 297 299 299 298 300 303 305 303 302 301 302 300 302 303 304 321 305 322 320 324 331 334 336 337 339 340 341 343 341 343 344 343 345 345 347 348 349 350 350 350 351 352 352 352 353 353 353 353 353 352 352 351 350 349 348 347 347 346 346 345 344 344 343 343 342 342 342 342 341 342 343 345 345 346 346 345 344 343 344 344 344 345 345 345 346 345 346 346 345
301 300 299 297 296 296 297 296 297 298 299 298 300 303 304 303 302 304 303 303 302 303 303 315 316 320 312 322 332 333 333 335 339 340 341 341 342 342 344 343 344 345 347 349 349 348 349 350 349 351 351 353 353 353 353 353 352 352 351 351 350 349 348 347 345 344 345 344 344 343 343 343 343 342 342 341 341 341 342 343 343 344 344 344 344 343 343 344 344 344 344 346 345 344 344 344 346
301 301 300 295 295 297 296 296 297 295 297 301 303 302 303 303 304 304 303 301 302 302 306 311 322 319 312 325 328 329 332 336 338 340 340 341 342 342 342 343 343 344 348 346 346 347 348 349 350 350 351 353 353 353 353 352 352 351 351 350 349 347 346 345 345 345 345 345 344 344 344 343 342 342 341 341 341 341 341 341 341 342 342 342 342 342 342 343 342 343 343 344 343 344 345 346 346
302 301 300 297 295 295 297 295 296 295 297 301 302 302 301 304 302 302 303 301 303 306 329 318 320 313 307 317 323 328 333 336 337 339 339 341 341 341 341 343 344 344 346 346 347 347 346 348 348 351 352 352 353 353 354 353 351 351 351 349 348 347 346 347 346 346 345 345 345 345 345 345 345 344 343 341 341 341 340 340 339 340 340 339 339 340 341 340 341 342 343 343 344 345 346 346 346
304 301 300 295 293 294 295 296 296 296 298 300 301 301 302 302 303 302 304 305 304 330 330 320 330 318 325 323 325 334 336 336 338 339 339 338 339 340 340 342 341 343 345 346 347 346 347 348 349 350 350 352 352 352 353 353 352 351 351 349 348 347 346 347 346 346 345 345 346 346 346 346 346 346 344 344 343 343 341 341 340 339 339 340 338 340 341 342 343 344 345 346 346 347 347 347 346
302 303 296 295 292 293 295 296 296 294 299 302 300 300 299 300 301 302 313 305 307 326 333 333 332 337 333 333 336 336 336 337 337 337 337 336 336 335 337 338 339 341 342 345 346 346 348 349 349 349 350 351 351 351 352 352 351 351 351 349 346 346 347 346 345 346 345 347 347 346 345 347 347 347 346 347 345 347 344 344 344 343 343 343 343 343 344 344 345 346 347 347 347 347 347 346 346
302 297 296 293 295 294 297 297 298 301 300 301 301 300 301 299 302 303 321 323 325 332 332 332 334 332 334 336 337 336 336 335 335 334 333 333 334 333 333 334 335 336 338 341 345 346 346 348 348 348 348 350 350 350 351 351 351 351 351 350 349 348 347 346 347 347 347 348 347 346 346 345 346 347 348 348 349 348 347 345 345 345 345 344 345 345 346 346 346 347 347 347 346 345 343 350 350
298 296 296 293 295 297 300 301 300 299 299 300 298 298 302 301 303 303 303 303 326 326 328 329 326 329 332 334 334 334 334 334 333 334 333 332 332 331 332 333 334 335 336 338 342 345 346 347 348 348 348 349 350 350 350 351 350 350 350 348 348 347 348 348 347 348 347 347 346 345 346 347 346 347 350 350 351 349 349 347 346 346 346 346 346 346 347 346 345 345 345 344 343 343 350 348 348
300 297 293 295 298 299 300 299 299 300 301 299 299 298 301 301 301 304 302 302 322 317 326 326 326 325 328 330 332 332 332 332 333 333 333 333 333 332 332 332 332 333 336 338 340 344 345 345 346 348 348 349 349 349 350 350 349 350 348 348 347 347 348 347 347 347 346 346 345 347 346 347 347 348 346 347 349 351 350 348 346 346 346 346 344 347 344 343 342 344 342 342 346 348 347 346 344
299 296 294 296 298 298 299 298 300 299 299 300 299 299 300 301 302 302 302 302 310 315 328 327 328 327 327 329 331 331 331 331 331 333 333 333 333 334 334 333 333 334 336 339 340 342 344 345 346 346 348 349 348 347 348 348 349 348 348 347 345 346 346 346 346 346 346 346 346 347 346 347 347 348 349 351 351 352 351 351 352 351 351 350 344 351 351 349 350 348 348 347 347 347 345 346 346
299 296 299 298 298 297 300 300 300 299 298 300 298 299 301 302 302 302 303 301 302 305 315 331 333 330 328 329 330 331 330 330 331 331 332 333 332 332 334 334 336 336 337 336 338 341 342 344 345 346 348 348 348 347 348 348 349 347 347 346 344 345 345 344 345 346 346 346 347 346 347 347 347 349 351 351 351 351 350 349 349 351 350 350 351 350 349 350 348 348 347 346 346 347 346 346 346
294 298 298 298 300 298 301 301 299 299 299 299 299 301 302 301 302 302 302 303 304 306 307 326 335 333 332 332 331 330 329 329 330 330 332 331 331 332 333 333 332 332 334 335 338 340 342 344 345 347 346 348 348 348 348 347 347 347 346 346 344 343 345 343 344 344 346 346 346 347 347 346 347 348 349 350 349 350 348 348 348 350 350 349 351 349 348 349 347 347 346 346 345 344 343 343 342
297 295 298 298 298 299 299 301 300 299 300 300 301 301 301 300 300 301 301 304 304 310 320 325 336 334 333 331 331 330 330 330 330 332 334 333 333 333 334 334 334 336 335 335 337 339 340 342 344 346 346 347 347 348 348 347 347 347 346 346 345 343 343 344 344 344 346 345 346 347 348 347 347 348 350 349 348 349 349 350 350 348 348 348 350 349 347 346 346 346 345 344 341 341 339 340 339
296 295 298 299 299 301 300 300 300 298 299 300 299 300 300 301 301 301 302 305 304 330 329 335 334 333 332 331 330 331 330 331 331 332 333 333 335 335 335 336 335 335 334 335 337 338 339 342 343 344 346 346 347 347 346 346 346 346 346 345 344 344 345 345 344 345 345 345 347 347 349 348 348 350 349 349 349 349 349 350 349 348 348 348 348 347 347 346 345 344 343 342 342 340 340 340 339
298 297 299 299 299 301 301 301 301 300 301 300 300 299 301 301 301 301 304 310 324 334 334 334 333 331 330 331 331 331 330 330 332 331 331 333 334 334 333 334 335 334 335 336 336 337 338 344 342 344 346 345 346 347 345 345 345 345 345 346 345 346 345 345 345 345 345 346 347 349 349 350 351 349 350 350 348 349 349 351 350 349 347 347 348 346 346 345 343 342 342 341 338 338 338 339 339
299 298 299 299 300 300 299 300 301 299 301 300 300 299 301 300 300 299 316 318 332 333 332 332 331 330 330 331 331 332 331 331 331 332 331 332 332 332 333 334 335 335 336 336 335 336 337 341 341 344 345 347 347 345 345 345 345 345 344 345 345 345 345 344 344 345 346 348 350 351 351 351 352 351 350 350 349 349 349 349 348 348 346 346 347 345 346 344 343 341 340 340 339 337 337 338 337
298 299 299 299 300 300 299 298 299 299 300 300 302 300 300 299 299 300 315 330 333 331 331 330 330 330 330 331 331 332 332 332 332 333 330 331 330 331 333 332 334 335 335 335 336 337 337 340 340 343 345 346 346 345 345 345 344 345 346 345 344 345 346 345 345 346 348 349 350 349 350 351 352 351 351 351 350 349 347 347 347 347 345 345 345 344 342 343 341 339 341 342 342 340 338 338 340
298 298 294 296 298 297 300 299 299 299 299 299 301 299 297 297 298 302 319 331 332 331 329 330 330 330 331 331 331 331 331 333 333 332 333 333 333 334 333 335 335 334 336 338 337 337 338 340 340 342 345 345 346 344 343 344 344 344 345 345 344 344 345 346 346 348 350 349 350 351 352 353 353 351 351 351 350 348 348 348 346 346 345 345 345 344 343 343 342 340 340 340 338 337 337 338 336
297 297 296 294 295 294 298 300 301 299 300 300 301 291 295 298 301 307 329 330 331 329 329 330 329 330 330 331 330 331 332 333 332 333 334 334 334 334 334 335 336 335 335 336 337 336 338 340 341 342 344 343 344 344 343 343 344 344 344 344 344 344 345 345 346 347 349 349 350 351 353 352 351 351 350 351 350 349 349 347 344 343 343 345 344 345 340 340 339 338 338 337 336 336 335 337 336
293 294 295 292 291 291 296 298 298 297 300 299 302 292 296 298 300 305 329 330 329 327 327 328 329 330 330 330 330 330 332 333 333 335 336 336 336 335 335 336 336 336 336 336 335 336 338 339 340 341 342 341 342 342 342 342 342 343 344 344 345 346 346 346 348 347 348 349 351 350 352 351 350 350 350 351 350 348 347 344 344 343 344 344 342 341 341 340 339 337 336 335 336 335 336 337 337
295 291 288 292 290 292 294 296 298 295 296 300 300 293 295 299 300 309 328 329 330 325 327 328 329 330 330 330 330 330 331 333 334 335 337 337 337 335 335 335 336 336 336 336 336 336 336 338 340 340 340 340 341 341 342 343 343 344 345 345 346 347 347 346 346 346 349 350 350 349 350 349 350 351 350 350 348 347 344 343 342 343 343 342 341 341 341 338 338 338 338 338 333 334 335 335 336
292 291 289 288 290 291 293 295 298 300 298 297 299 294 296 297 300 308 327 328 328 326 327 329 329 330 330 330 330 330 330 331 333 334 336 336 337 336 336 336 336 336 337 337 336 336 336 337 339 339 338 339 340 341 342 345 345 344 346 346 347 346 346 345 345 345 346 348 348 349 349 350 350 349 349 349 348 346 343 342 340 341 342 340 341 340 338 338 338 337 337 338 337 334 334 334 336
288 291 289 290 289 291 290 294 295 299 299 294 297 296 297 298 298 305 326 328 327 325 327 329 329 329 330 330 329 329 330 330 330 332 334 336 337 337 337 337 337 337 337 338 337 336 335 337 338 338 339 340 340 341 342 344 344 345 345 344 343 343 344 344 344 345 345 347 349 349 349 349 348 346 346 346 345 344 342 340 340 342 341 341 339 339 338 339 338 338 336 337 336 335 333 333 333
287 287 288 288 291 292 291 291 295 295 298 296 296 296 296 299 306 313 323 327 326 324 325 328 328 328 329 328 328 329 329 329 331 333 335 335 337 338 337 338 338 338 338 338 337 337 337 337 338 338 339 339 340 342 344 343 343 343 343 342 340 339 341 341 343 344 345 345 348 348 347 348 346 345 344 345 344 341 340 340 341 341 340 339 339 337 337 337 338 338 337 336 336 334 332 333 333
289 289 289 290 288 289 290 294 295 296 294 295 295 294 296 298 303 315 321 324 323 325 327 327 328 328 328 327 328 328 329 329 333 335 336 335 336 337 337 337 338 338 338 337 337 337 336 337 338 338 339 340 342 343 341 340 340 338 337 338 337 338 339 339 342 344 344 345 347 347 346 345 343 343 343 344 343 341 340 339 340 340 339 338 337 336 335 335 337 336 336 335 334 333 334 333 333
291 291 291 290 290 290 291 293 295 296 295 295 295 296 296 297 301 312 318 323 323 322 322 324 325 326 326 327 328 328 328 329 334 335 335 334 335 336 337 338 337 338 337 337 337 337 337 335 337 336 339 341 340 339 338 337 336 336 336 336 336 337 338 339 339 341 343 345 345 345 343 343 342 342 341 342 341 340 340 340 339 339 338 338 337 337 337 337 337 336 334 334 332 331 331 332 332
291 291 290 289 291 290 292 294 295 295 295 294 296 295 296 298 299 307 315 320 318 320 321 321 323 325 326 327 327 328 329 332 333 331 331 333 333 335 336 336 337 334 335 337 336 337 337 338 337 337 338 338 339 339 337 338 337 336 335 335 336 336 337 338 338 340 342 342 343 343 342 341 342 341 341 342 342 340 339 338 339 338 338 337 337 337 336 335 335 335 335 331 332 329 328 329 329
291 291 290 289 290 292 292 293 294 295 295 294 294 294 295 298 302 309 312 317 320 322 323 323 323 324 325 326 327 328 329 329 330 330 331 330 332 333 334 335 337 336 336 336 338 338 338 337 338 338 338 337 338 338 338 338 339 338 338 336 337 336 339 341 340 341 341 341 341 341 341 341 340 340 341 340 340 340 339 338 338 338 338 337 336 335 335 334 334 333 333 330 329 329 327 328 328
290 290 289 288 290 289 288 293 294 295 295 294 293 293 296 301 306 308 315 317 320 323 324 325 325 325 325 326 327 327 327 328 328 329 329 329 330 331 332 334 335 336 335 336 336 336 337 337 338 339 338 338 338 339 338 339 339 339 340 338 338 338 336 338 339 339 339 338 337 339 340 340 340 340 339 339 339 339 339 337 337 337 337 337 336 334 333 331 333 332 331 330 330 327 325 325 327
290 290 291 290 288 291 292 291 293 294 293 294 294 294 294 296 300 303 310 317 319 320 321 322 323 325 327 328 327 327 327 327 328 328 329 328 328 330 331 333 335 334 334 335 336 336 337 337 339 339 338 338 339 339 340 339 336 336 335 335 336 335 337 336 336 335 336 336 336 337 337 339 338 338 338 338 337 337 338 337 337 337 336 336 335 333 331 330 329 330 330 329 328 327 323 324 325
289 290 291 291 292 291 290 291 292 292 291 294 294 288 289 297 301 301 310 310 312 317 318 319 321 323 324 323 324 327 328 329 329 328 329 328 329 329 331 332 333 333 333 335 337 338 334 334 335 336 339 339 339 338 339 337 336 334 334 333 332 331 330 331 332 332 332 334 334 336 337 337 337 337 337 337 336 336 337 337 337 335 335 334 332 331 331 330 329 328 328 328 326 327 326 324 323
288 289 292 291 292 292 291 290 292 288 287 291 293 288 286 295 296 300 307 308 310 314 315 318 321 322 323 323 324 325 326 327 328 329 330 327 328 329 330 331 332 333 334 336 336 337 335 334 334 335 337 338 339 338 339 338 336 336 336 336 336 333 331 333 335 335 334 334 334 334 335 337 336 336 336 336 336 336 336 336 336 335 333 332 331 331 329 328 327 327 328 327 325 326 326 321 321
287 292 291 291 291 290 291 291 292 291 294 292 291 293 289 289 294 300 307 308 310 311 313 316 319 321 322 323 325 326 326 327 326 327 329 328 328 329 329 331 332 333 335 335 335 335 335 332 334 333 335 338 338 338 338 336 335 337 337 336 335 335 334 332 332 333 334 333 332 333 334 335 335 335 335 333 333 334 335 334 334 333 331 331 329 328 327 327 326 326 326 327 326 324 324 322 320
290 291 292 291 292 291 291 292 291 292 291 288 291 294 288 288 294 306 307 303 306 308 311 314 316 319 321 322 324 325 327 327 327 326 328 328 328 329 330 331 333 333 334 334 335 334 335 335 335 333 335 338 338 338 336 333 335 336 336 334 333 334 334 331 331 332 331 332 331 332 334 334 334 334 332 332 333 334 334 334 333 332 330 329 328 327 326 326 325 325 324 323 323 322 322 321 320
292 292 293 293 292 292 292 291 291 290 288 286 289 292 287 288 293 300 306 304 304 307 310 313 316 318 319 321 323 324 326 327 327 328 329 328 329 330 331 333 333 333 334 335 335 335 335 336 335 332 333 337 336 337 336 334 334 335 335 334 332 329 328 328 330 330 330 331 331 331 333 332 331 329 329 331 332 332 333 332 331 330 329 328 326 325 324 324 323 322 322 322 321 320 319 318 317
293 293 292 291 291 291 292 292 291 289 283 287 290 290 290 285 293 298 301 303 307 309 311 314 316 318 319 321 323 324 324 326 327 328 329 329 330 330 332 331 332 333 334 334 334 334 335 335 334 332 332 335 336 336 336 335 336 338 336 334 332 329 327 328 328 329 329 330 329 330 331 331 330 327 328 330 332 332 331 330 330 329 328 327 325 324 323 321 321 320 320 320 319 318 317 317 316
293 292 290 289 288 290 289 288 290 283 282 287 290 290 290 284 290 296 307 310 309 309 308 311 313 316 317 320 322 324 324 325 327 327 327 328 329 330 331 330 331 332 333 333 333 334 334 334 331 329 330 332 334 335 336 335 337 338 337 336 334 331 330 329 328 327 327 327 328 328 329 329 328 327 330 330 329 330 330 329 328 327 326 325 323 323 322 321 320 319 318 317 317 317 317 316 316
292 291 290 285 282 283 280 285 280 281 282 287 287 290 287 287 293 298 303 306 309 313 310 311 314 315 318 320 322 323 325 326 325 326 326 327 327 328 328 329 330 330 331 332 333 333 332 329 328 327 329 331 332 334 334 333 335 335 335 335 334 333 333 331 329 327 328 328 328 328 327 327 327 327 328 328 328 329 328 327 326 325 324 323 322 320 320 319 319 317 316 315 315 314 314 314 313
290 288 287 284 280 279 276 280 283 284 286 288 287 290 287 293 295 299 298 301 307 313 316 315 314 317 319 320 322 323 324 325 325 326 326 327 327 328 329 329 330 330 331 332 333 333 330 328 328 330 330 331 331 332 333 333 334 334 335 335 334 333 332 330 328 328 329 329 329 328 328 328 328 328 328 327 327 328 328 327 325 324 322 321 320 320 319 318 317 315 315 313 313 313 313 313 312
290 292 290 287 285 281 276 280 277 281 284 287 288 287 286 286 291 301 302 303 310 306 307 314 318 318 320 321 322 323 324 325 325 325 326 327 327 328 328 329 330 331 331 332 332 333 330 327 329 330 330 330 330 331 331 330 330 332 334 335 333 332 331 330 329 329 329 328 328 328 329 329 329 328 327 327 327 327 326 325 324 323 322 321 320 319 318 317 316 315 313 313 313 313 313 312 312
290 291 293 288 286 291 283 284 285 284 284 283 285 286 292 292 300 299 302 308 312 313 312 313 316 319 320 320 321 322 323 324 325 325 326 327 328 329 329 329 330 331 332 332 332 333 331 327 329 330 330 329 328 328 328 330 329 331 333 333 332 332 330 329 328 328 329 330 329 329 328 329 329 328 327 326 327 326 325 324 322 321 320 319 318 317 316 315 315 314 313 313 312 313 312 312 311
288 289 286 288 295 292 285 284 287 286 285 283 287 289 292 297 298 302 308 311 312 314 313 314 317 318 320 320 321 322 322 323 325 325 326 327 328 328 329 330 331 332 332 332 332 334 332 329 328 329 329 329 328 328 329 329 330 331 333 334 333 331 330 328 327 328 329 329 329 328 327 327 328 328 326 326 326 325 324 322 321 320 319 318 317 316 315 315 314 313 312 312 312 312 312 311 311
290 285 289 293 295 294 290 282 283 283 281 282 287 286 288 289 288 305 308 306 310 313 314 316 318 319 319 320 322 322 322 323 325 326 327 328 328 328 329 330 332 332 333 333 333 334 334 332 329 328 329 328 329 329 328 329 330 331 332 333 333 331 330 328 328 327 328 327 327 327 327 326 327 327 325 325 325 324 322 321 320 319 318 317 317 316 315 314 314 312 312 311 312 312 311 310 310
291 290 295 288 284 283 288 286 278 279 278 282 286 288 289 290 291 299 301 305 309 311 314 315 316 317 319 320 321 322 323 323 324 325 326 327 327 327 328 330 331 333 334 335 335 335 334 333 330 328 328 331 331 329 330 330 332 332 332 332 332 330 329 328 328 328 328 327 326 326 326 327 327 326 324 324 324 323 321 320 319 318 317 316 316 315 315 314 313 311 311 310 311 311 309 309 309
294 296 292 294 292 289 285 286 289 287 280 281 283 286 285 293 294 298 299 308 311 312 312 314 316 317 319 320 320 320 321 322 323 324 326 327 327 328 328 329 330 331 333 334 335 335 334 333 328 328 330 331 330 330 330 329 331 332 332 332 331 329 328 328 328 328 328 326 326 326 326 326 326 325 324 324 323 321 320 319 318 317 316 316 315 314 314 313 312 311 311 310 310 310 308 308 308
289 290 289 289 292 293 293 291 288 286 283 282 282 282 288 296 300 300 301 304 311 313 313 315 317 318 320 321 321 321 322 322 323 324 326 327 327 328 328 329 331 332 334 334 334 334 334 332 329 330 330 328 328 329 329 330 331 332 331 329 329 329 328 328 328 328 328 327 326 325 326 326 325 323 323 323 322 321 319 318 317 316 315 315 314 313 313 312 311 310 310 310 309 308 307 307 307
291 290 288 290 288 286 283 282 288 287 288 282 282 282 292 298 301 302 303 308 310 314 315 316 316 318 319 320 321 322 321 323 324 326 327 328 328 328 328 329 331 332 333 333 334 334 333 332 330 330 330 329 328 327 329 330 331 330 329 329 328 329 328 327 328 328 326 325 324 325 325 323 323 323 323 323 321 320 319 317 316 315 315 314 313 313 312 311 310 309 309 310 309 308 307 307 307
Wind_Speed
8 6 6 3 1 0 2 4 4 1 1 2 4 1 2 3 1 4 5 5 3 2 3 2 5 9 2 2 3 2 1 2 1 2 2 2 4 7 9 4 12 15 15 15 15 16 16 16 15 16 16 16 16 17 18 18 18 18 16 16 16 15 14 14 14 14 13 12 13 13 14 14 13 13 13 13 13 13 13 14 14 14 13 13 13 13 13 12 12 11 10 10 10 10 9 9 9
6 6 4 1 1 2 1 2 2 2 0 3 4 1 1 2 4 5 6 6 3 3 2 1 4 3 4 5 3 4 3 1 3 2 3 2 5 8 4 8 13 16 14 14 15 15 16 16 15 15 16 16 17 17 18 18 18 17 17 17 16 15 15 14 14 14 13 12 12 12 12 13 13 12 13 13 13 11 12 13 14 13 13 13 13 12 12 12 12 12 11 10 10 9 9 9 8
6 6 1 0 1 3 3 1 4 1 4 6 4 3 3 4 4 3 3 3 3 2 2 2 3 3 3 2 2 2 2 1 2 2 3 5 8 5 6 9 10 13 14 13 14 14 13 15 15 15 17 16 17 17 17 17 17 18 18 17 15 15 14 14 13 13 12 12 12 12 12 11 12 11 11 12 12 11 11 13 14 13 12 12 12 12 12 12 11 11 11 10 9 8 8 8 8
4 0 2 1 2 1 2 1 2 3 5 5 7 3 4 3 2 3 4 5 2 4 2 3 5 2 4 6 0 2 2 2 2 4 3 6 3 10 9 11 13 11 12 12 12 13 12 16 15 15 17 16 17 17 18 17 17 17 17 16 16 15 14 14 13 13 12 12 11 11 11 10 10 10 10 10 12 11 12 12 13 12 12 11 11 11 11 11 11 11 11 10 9 9 8 8 7
3 0 2 1 1 1 2 1 0 2 7 3 7 1 4 3 4 3 3 2 5 2 1 3 3 2 2 3 4 2 3 1 1 1 4 4 8 10 13 13 13 13 13 13 13 13 12 19 14 15 16 16 17 17 17 17 16 17 16 16 16 15 15 14 13 12 12 11 11 10 10 10 9 9 10 11 11 11 11 12 12 12 11 11 11 10 11 11 11 10 10 10 9 9 8 7 7
0 1 1 1 1 2 4 3 2 6 6 2 6 7 4 4 4 3 6 6 7 5 1 2 3 2 2 2 3 2 2 0 3 2 6 7 12 13 15 14 13 13 13 13 13 12 13 18 16 14 14 15 16 17 17 16 16 16 16 16 15 15 14 14 13 12 11 11 10 10 10 9 8 9 9 10 10 11 10 11 11 10 10 11 10 10 10 10 10 10 10 9 9 9 8 7 6
1 2 3 3 3 1 4 5 7 7 8 4 8 11 7 4 4 2 4 7 0 4 3 1 2 4 6 4 5 4 2 3 3 2 4 11 14 15 16 13 13 14 13 12 12 11 15 16 14 13 14 15 16 16 16 16 16 15 16 15 15 15 14 13 12 12 11 10 9 9 9 9 8 8 8 9 10 9 9 9 10 11 11 11 10 9 9 9 9 10 9 9 9 8 8 7 6
1 3 1 3 2 1 3 4 7 5 4 6 6 7 9 2 3 3 3 2 5 4 4 1 1 1 3 3 3 3 5 3 3 5 11 14 16 17 15 14 14 14 15 13 12 11 15 13 13 13 14 15 16 16 16 16 15 15 15 15 15 15 14 13 12 11 10 9 9 9 9 8 8 8 8 8 9 9 8 8 9 11 10 10 9 8 9 9 9 9 9 8 8 7 7 7 6
2 3 1 2 4 2 2 6 6 2 3 2 9 8 4 1 2 2 3 2 3 3 3 3 0 3 1 2 1 2 3 4 3 9 12 14 17 18 12 14 14 13 14 13 12 12 14 14 12 13 15 16 15 16 16 16 15 14 15 15 14 14 13 13 12 11 10 9 8 8 8 8 7 7 7 7 7 8 8 8 9 9 10 9 8 8 8 8 8 8 8 7 7 6 6 5 4
3 2 4 1 2 7 4 4 4 6 9 7 10 10 4 4 4 5 5 5 6 2 3 2 2 9 5 5 2 2 1 3 8 10 11 14 15 16 15 14 14 15 14 13 12 13 11 16 12 13 13 15 14 14 14 14 14 14 15 14 13 12 12 12 11 10 10 9 8 7 7 7 7 7 7 7 7 7 7 7 8 8 8 8 8 8 8 7 7 7 7 7 7 6 5 4 3
5 3 2 4 4 7 8 6 9 3 5 3 6 11 9 3 2 3 5 4 2 5 1 2 2 6 3 3 1 2 3 6 10 12 12 13 14 15 15 13 13 15 15 15 14 13 13 14 16 13 13 13 12 12 11 12 12 11 13 13 12 12 11 11 11 10 10 9 8 7 6 6 6 6 6 6 7 6 6 6 7 7 7 7 7 7 7 6 6 7 7 6 6 5 5 4 4
3 5 3 7 8 9 7 10 9 9 4 1 5 7 2 5 3 4 8 8 4 7 8 6 2 5 4 2 2 3 6 7 8 11 12 13 12 13 13 12 13 13 15 16 15 13 14 13 14 15 13 12 12 11 11 11 11 12 13 12 12 12 11 11 11 11 10 10 9 8 7 7 6 6 5 5 6 6 5 6 6 6 6 6 6 5 5 5 6 6 6 6 6 6 5 5 5
4 3 5 6 5 7 4 9 9 9 5 7 9 5 4 6 7 11 3 3 5 5 6 10 2 4 5 3 4 4 7 6 8 11 13 12 12 12 12 12 12 14 14 15 15 14 15 13 12 13 14 15 12 12 11 12 12 12 13 13 12 11 11 11 11 11 11 10 9 8 7 7 6 6 6 5 6 5 5 6 5 5 4 4 4 4 4 4 5 6 7 7 7 6 6 6 6
4 3 6 9 4 6 8 5 4 8 9 5 6 2 5 4 6 4 3 5 5 7 2 7 5 6 7 2 3 6 6 9 10 12 11 12 12 11 13 12 13 13 13 14 14 14 14 14 12 12 13 12 13 14 13 14 13 12 13 12 12 11 11 11 11 11 10 10 9 8 8 7 7 6 6 5 5 5 6 6 5 5 4 4 3 3 3 4 4 5 6 6 6 6 6 6 7
5 2 3 1 3 4 5 8 9 8 12 5 4 8 6 1 4 3 5 4 7 4 2 1 4 6 4 10 5 8 12 13 12 12 12 12 13 12 13 11 12 12 13 13 13 14 14 13 13 12 12 12 13 11 10 12 14 13 12 12 12 12 11 11 11 10 10 9 9 8 7 7 7 6 6 6 5 6 6 6 5 4 3 2 2 2 3 3 4 4 5 6 6 6 6 6 6
3 4 1 6 6 9 5 7 3 8 10 3 2 4 6 3 3 5 5 5 1 2 3 3 3 4 3 8 4 11 14 14 13 13 13 14 13 12 12 12 11 12 11 12 12 13 12 13 11 11 12 12 12 10 11 12 13 13 12 12 12 11 11 11 11 10 10 10 9 8 7 6 6 6 5 6 6 6 5 5 5 4 3 3 2 2 2 3 4 4 5 5 6 6 7 7 6
2 2 6 4 8 9 6 8 8 9 5 12 7 4 5 3 2 3 1 2 4 1 3 4 3 5 5 4 5 16 16 15 15 15 15 13 12 11 10 10 10 10 9 12 11 11 12 12 13 11 12 12 12 11 10 11 11 13 11 11 11 11 11 11 10 10 9 9 9 8 6 4 5 5 4 5 5 4 4 4 4 4 2 2 2 2 2 3 4 4 5 5 6 7 7 8 4
5 7 8 8 5 12 10 11 11 4 11 10 3 5 6 5 3 4 3 2 1 3 3 2 5 6 5 5 12 16 17 17 17 18 16 14 12 12 12 11 11 11 11 11 11 12 12 12 13 12 11 13 11 10 8 9 10 10 10 9 8 9 9 10 8 7 8 7 8 6 5 5 4 4 4 5 5 5 5 3 3 2 1 1 1 1 2 3 3 4 5 5 6 6 6 3 2
9 3 7 13 9 6 10 11 10 6 9 1 2 2 7 5 4 3 4 2 5 5 2 1 4 8 8 10 14 16 17 17 18 17 18 18 16 17 14 12 12 12 12 11 11 13 12 11 12 12 12 12 12 10 8 9 10 8 9 7 6 8 8 7 7 7 6 6 6 5 4 4 3 3 2 3 4 4 5 3 2 2 1 1 1 2 3 3 3 4 4 4 5 5 2 2 2
5 5 9 10 6 6 8 2 8 5 2 4 4 2 2 4 1 1 2 1 4 6 5 2 3 6 9 11 13 14 16 17 17 17 18 17 16 14 14 15 13 13 13 12 12 11 12 11 12 11 12 12 11 9 7 9 9 8 7 6 6 6 6 6 6 6 6 5 5 4 4 3 2 2 2 3 2 3 4 3 2 1 2 1 4 1 0 1 4 2 1 3 2 2 3 3 3
4 6 9 6 8 10 7 5 5 5 1 3 3 2 0 4 4 2 3 3 4 5 6 8 10 12 13 14 15 14 16 17 17 17 17 17 15 11 11 13 12 12 12 12 11 12 14 12 11 11 11 11 11 9 9 8 8 8 7 6 6 6 6 5 5 5 5 5 4 3 3 2 1 1 1 1 1 1 2 3 2 1 1 1 1 1 1 2 0 3 1 1 3 3 3 4 4
5 10 2 3 4 7 3 8 4 3 2 3 2 1 3 2 1 4 5 5 2 1 2 7 11 16 17 18 17 16 17 17 18 18 18 18 17 15 13 11 10 11 11 12 13 13 14 13 13 11 11 11 10 9 9 9 9 8 7 7 6 6 5 5 5 4 4 3 3 2 2 2 1 1 1 1 1 1 2 3 3 2 1 2 1 2 2 2 2 2 2 3 3 2 3 3 3
10 4 6 4 7 9 3 5 4 6 4 5 3 3 2 0 2 1 3 6 1 2 1 4 12 17 18 18 18 18 18 19 19 19 18 18 18 15 13 12 13 13 12 11 13 12 13 14 13 12 12 11 12 10 9 9 9 8 8 7 7 6 5 5 5 4 3 3 3 2 2 2 1 1 1 1 1 1 2 2 3 2 1 2 1 2 2 2 2 2 2 3 3 3 4 3 3
7 6 4 9 5 10 2 4 3 6 6 6 2 2 4 2 6 2 3 4 4 4 4 6 12 14 16 18 19 20 19 18 18 17 18 16 16 15 13 12 11 10 11 12 13 12 13 14 14 13 12 12 11 10 10 9 8 8 8 7 6 6 5 5 4 4 3 3 3 2 2 1 1 1 0 1 2 1 3 3 2 2 2 2 2 1 2 2 2 2 3 3 4 4 4 4 4
12 9 5 3 6 7 4 2 2 3 3 1 1 4 5 5 4 3 6 6 2 1 6 10 13 14 15 16 17 15 15 16 16 16 13 10 11 11 12 8 11 10 11 13 12 12 14 13 15 14 13 14 11 11 10 8 8 7 8 8 7 7 5 4 5 4 3 3 2 2 1 1 1 1 1 2 2 4 3 3 2 3 2 2 1 2 2 2 2 2 3 3 3 3 3 4 4
11 9 5 4 6 7 6 6 6 5 2 3 3 5 5 6 3 6 7 4 2 5 8 12 13 14 16 16 15 16 15 16 16 16 17 10 9 10 13 11 11 12 11 12 12 11 12 12 14 14 14 13 11 11 9 9 8 8 8 7 7 7 6 5 5 4 3 3 2 2 1 1 0 1 1 2 3 4 4 3 3 3 3 2 2 2 2 2 3 3 2 3 4 3 4 4 4
10 9 8 8 6 4 4 7 5 3 4 5 6 3 5 2 5 6 1 4 5 7 9 10 13 14 15 14 15 15 16 17 17 14 12 10 11 12 12 10 10 11 11 12 12 11 12 12 14 14 13 12 11 11 9 10 9 8 8 7 7 7 6 5 4 4 3 3 1 1 1 1 1 1 2 2 4 4 4 3 3 2 3 2 2 2 2 2 2 2 3 3 3 4 4 3 4
5 12 10 10 10 7 3 2 3 3 4 7 6 6 1 1 3 7 4 6 9 10 10 11 11 11 13 14 15 15 14 14 14 14 18 16 13 12 12 11 12 11 11 12 10 11 13 14 14 13 13 12 11 11 9 9 9 8 8 7 7 6 6 5 4 4 3 2 1 1 1 1 2 2 2 2 3 4 4 4 3 3 3 2 2 2 2 2 1 2 2 2 2 3 4 4 3
5 9 9 11 10 11 11 10 6 5 4 5 7 4 7 6 8 5 6 8 10 9 11 11 11 11 12 13 13 13 14 15 15 15 16 11 8 8 11 9 10 11 8 11 11 12 14 13 12 13 13 12 11 10 9 8 8 7 7 7 6 6 6 5 4 4 2 1 1 2 2 2 2 2 2 2 3 4 4 4 4 3 3 2 2 1 2 1 1 1 2 2 3 4 4 4 4
6 6 5 7 9 11 14 8 9 8 5 5 6 9 13 12 8 4 9 10 9 8 8 10 9 10 11 12 12 12 12 14 17 17 14 10 8 8 9 9 9 9 8 9 11 12 11 9 9 10 10 12 10 10 7 7 7 7 6 6 6 6 5 5 5 4 2 2 2 3 3 3 2 2 3 2 3 4 4 4 4 3 3 2 1 0 1 1 2 2 2 3 3 3 4 4 4
10 5 4 8 8 6 6 10 11 13 5 8 8 11 7 4 7 6 10 11 13 11 10 10 10 11 11 12 12 13 14 15 16 15 14 11 8 7 8 8 9 8 7 9 13 13 12 11 9 8 9 11 10 10 9 9 8 7 6 6 6 6 5 5 4 3 3 3 3 3 2 3 3 4 3 4 3 4 4 4 3 4 3 2 1 2 1 2 2 3 3 4 3 4 4 4 4
7 8 12 6 10 2 3 3 15 15 4 9 10 10 11 6 4 9 11 11 12 12 11 12 11 11 11 12 13 13 13 13 14 14 14 13 9 8 8 9 10 9 10 10 12 12 12 12 11 10 12 13 10 9 10 9 8 7 6 6 5 5 4 4 3 3 3 3 4 4 3 4 3 4 4 4 4 3 3 3 3 3 3 3 2 2 1 2 2 2 3 3 4 4 5 5 4
6 13 4 12 9 6 3 7 10 17 8 7 16 6 3 6 6 9 11 13 13 11 11 11 13 13 12 11 11 12 11 13 13 14 14 13 12 10 8 9 10 11 10 11 13 13 13 13 13 12 12 13 11 12 11 9 7 7 6 5 4 4 4 3 3 4 4 4 4 3 4 3 3 3 3 4 4 3 3 3 3 3 3 3 2 2 2 2 2 2 3 3 3 4 5 5 4
10 4 5 1 13 7 8 6 5 10 14 10 12 13 13 2 1 8 13 14 15 12 12 12 11 11 12 10 11 12 13 13 15 15 14 13 12 12 10 9 10 10 9 10 12 14 14 14 13 13 11 10 11 11 10 8 7 6 6 5 5 4 3 3 3 4 5 4 3 4 3 3 3 4 4 5 4 3 3 3 3 3 3 3 2 2 2 2 2 2 2 3 3 4 4 6 6
10 10 6 5 6 13 10 8 9 8 12 14 13 16 18 7 2 9 13 15 15 14 13 13 13 12 11 11 11 13 13 14 15 12 12 12 11 11 10 10 9 10 8 11 12 12 11 11 11 12 12 11 11 11 9 7 7 5 5 5 5 4 3 3 4 5 5 5 4 4 3 3 3 4 5 6 5 4 3 3 3 3 3 3 2 1 1 2 2 2 3 3 3 4 4 4 5
11 13 10 8 12 13 13 10 3 15 11 12 15 14 17 9 5 7 9 13 14 13 12 10 11 11 11 12 12 12 13 15 11 8 8 10 10 11 11 10 9 8 9 10 12 12 12 12 11 11 12 12 11 9 9 8 7 6 6 5 5 4 3 3 4 4 5 6 4 4 4 4 4 4 4 5 5 4 3 3 4 3 3 2 2 1 2 2 2 2 3 3 3 2 3 4 5
10 11 9 9 9 4 2 3 3 7 8 13 12 13 15 10 9 10 12 12 13 12 12 10 10 12 12 13 14 14 14 14 8 7 7 10 10 10 10 10 10 10 10 11 12 12 13 13 13 13 12 12 10 9 8 7 7 6 5 6 5 5 5 4 4 4 4 5 4 5 5 4 4 4 5 6 5 4 3 3 4 3 2 2 2 2 2 2 2 2 2 3 4 4 4 6 5
14 12 12 6 10 9 7 11 4 5 8 7 8 12 16 11 9 9 9 11 15 15 14 14 14 14 13 15 15 15 14 8 6 6 7 10 9 11 9 9 11 12 11 12 13 12 13 13 14 13 12 12 11 9 7 6 5 4 3 4 5 6 6 5 5 4 5 5 4 5 5 5 5 4 4 5 4 4 4 3 3 3 3 3 3 2 2 3 4 3 2 2 3 4 4 6 7
6 12 10 7 6 2 2 2 1 5 7 4 8 12 15 9 6 6 11 15 13 16 16 17 17 16 14 14 15 14 11 13 11 10 8 9 11 11 11 11 11 12 12 13 13 13 13 13 13 12 12 12 11 10 8 5 5 6 6 6 7 6 4 3 4 5 5 6 5 4 4 4 5 5 5 4 4 3 4 4 3 3 3 2 2 2 2 3 3 3 3 3 2 3 4 5 7
6 7 10 12 5 8 8 5 3 7 4 4 8 11 10 4 2 4 9 14 12 14 14 12 12 14 16 16 14 11 14 13 14 14 12 9 11 10 10 12 11 10 10 10 12 12 12 12 12 13 12 12 12 10 10 9 8 8 6 7 7 5 6 6 6 5 6 6 5 4 4 4 5 5 5 5 4 4 4 4 3 3 3 1 1 2 2 3 3 3 3 3 2 2 4 6 7
0 4 7 7 7 4 2 7 2 2 2 3 7 5 5 5 5 4 6 9 10 12 14 15 15 15 13 11 11 13 15 15 14 12 10 10 11 11 10 12 11 11 11 11 11 11 5 5 8 11 12 13 13 12 12 12 12 10 9 9 7 9 7 6 7 6 6 4 5 4 4 4 5 5 5 5 5 4 4 3 3 3 3 2 2 2 3 3 3 3 4 4 4 3 4 4 6
5 3 4 8 9 8 2 3 7 7 5 5 6 5 8 3 6 6 5 8 12 12 13 17 17 15 14 15 16 14 14 13 13 13 12 11 10 10 11 11 13 11 12 10 10 10 12 12 9 6 8 11 13 15 14 12 10 11 10 9 8 7 8 8 8 9 8 6 5 4 4 4 5 6 5 5 5 4 4 3 3 3 3 3 3 3 3 3 4 4 4 3 5 5 3 3 4
7 7 7 3 6 6 5 2 6 8 9 4 2 10 4 2 6 7 7 10 14 12 14 16 15 14 15 16 15 14 14 14 14 12 10 11 12 12 12 11 13 12 11 11 11 10 11 10 11 7 6 9 13 15 14 9 9 10 14 13 11 12 11 8 7 7 6 5 7 6 4 4 5 6 5 5 5 4 4 4 3 4 4 3 3 3 4 4 3 4 3 4 5 4 3 4 4
7 3 9 6 5 5 4 4 3 1 4 3 1 5 7 5 6 2 5 9 10 11 14 15 14 16 17 16 15 14 13 12 11 12 11 10 12 12 13 12 11 12 11 12 11 11 14 16 13 14 11 10 11 14 10 10 9 10 11 12 10 11 11 11 9 6 7 7 7 6 4 4 4 5 5 5 4 4 4 4 4 4 4 3 3 4 4 3 3 4 5 5 5 5 5 5 4
5 4 10 8 6 4 4 2 2 1 2 7 5 3 6 8 3 2 6 6 9 13 16 17 16 15 16 16 13 14 13 12 12 11 11 11 12 13 12 12 11 12 12 12 13 12 13 15 15 15 11 10 11 14 12 13 10 5 11 11 10 8 9 10 9 9 8 7 8 6 4 5 5 5 5 5 4 4 4 4 5 4 4 4 4 4 4 4 5 5 5 5 6 6 5 5 5
4 6 5 5 3 2 2 0 1 1 2 9 9 7 9 7 3 3 4 6 11 14 15 15 14 15 15 15 16 15 13 12 12 12 11 11 12 12 12 11 11 13 11 13 13 12 13 13 14 17 13 8 9 11 12 14 14 10 8 11 13 10 10 9 9 10 9 9 7 7 4 5 4 4 4 4 5 5 5 5 5 5 4 4 4 5 5 5 5 6 6 6 6 7 6 6 6
9 11 8 5 3 2 2 1 2 0 6 6 6 5 5 8 6 9 9 9 9 6 7 9 12 13 14 14 15 13 13 12 11 11 11 11 11 12 12 13 13 12 12 13 13 13 13 13 10 15 12 7 10 11 14 15 15 12 11 14 14 14 13 12 11 10 10 9 10 8 5 5 4 4 4 4 5 5 6 5 5 5 4 4 4 4 4 4 4 5 5 7 8 7 6 6 7
15 9 9 7 3 3 3 1 2 5 6 3 7 8 7 10 3 5 10 6 9 12 11 12 13 15 15 15 13 12 13 13 12 11 10 11 12 13 14 14 14 13 13 14 13 12 12 7 12 13 10 11 10 9 10 15 14 11 10 12 12 14 14 13 13 12 12 11 10 10 6 5 4 4 4 5 5 6 6 6 6 5 4 4 5 4 4 4 4 4 5 6 6 6 6 6 6
14 12 12 13 7 4 5 5 7 8 5 2 1 9 3 13 8 1 7 10 9 9 9 10 11 13 13 12 12 11 12 13 12 11 11 11 12 13 15 14 14 14 14 14 13 12 7 11 16 14 12 11 10 10 11 14 16 15 12 10 11 12 10 13 13 12 9 8 8 8 7 6 6 6 5 6 6 7 5 6 5 5 4 4 5 6 5 5 4 5 6 7 7 7 7 7 7
14 16 15 14 10 10 8 8 0 2 2 1 1 2 7 4 7 13 14 14 13 11 12 11 8 7 8 10 11 12 13 14 11 11 12 12 12 13 14 14 14 12 14 13 12 10 9 11 12 12 13 12 11 9 8 8 7 8 10 9 10 9 9 11 11 9 8 7 7 8 8 7 6 6 7 7 7 6 5 6 6 6 6 6 6 6 5 5 5 6 7 8 8 7 7 8 8
10 4 14 11 7 5 7 7 7 6 6 4 2 6 5 9 8 5 11 5 2 7 10 10 7 5 7 9 11 13 14 14 13 13 13 14 15 15 12 12 12 12 13 12 11 12 11 14 15 15 13 9 8 6 5 7 6 4 9 10 12 11 11 9 8 7 8 8 7 8 7 6 6 6 6 7 8 7 7 7 7 6 6 6 6 6 5 5 6 6 7 7 6 6 7 7 7
3 3 3 4 10 2 5 1 4 5 5 3 5 4 2 5 1 1 2 5 6 6 8 8 8 7 10 10 12 14 15 15 14 14 13 15 15 14 12 12 12 12 13 11 13 13 11 12 11 9 12 10 9 8 8 9 10 10 10 11 11 12 10 9 9 6 6 6 8 8 7 6 6 6 7 8 7 7 7 8 7 7 7 6 6 6 6 5 6 7 7 6 7 5 8 9 7
10 8 15 7 5 5 4 2 4 2 0 4 3 5 6 5 10 3 1 4 5 2 5 7 8 10 12 11 12 14 14 15 14 15 14 15 13 13 13 14 12 12 12 12 14 14 13 13 15 16 13 10 12 12 13 12 11 11 11 11 10 12 13 13 11 9 7 6 7 7 7 6 7 6 8 6 7 7 7 8 7 7 6 6 7 6 6 6 6 6 6 7 7 7 8 8 7
8 10 7 5 3 4 2 4 1 4 7 2 3 7 8 6 4 3 1 3 6 3 5 7 8 10 12 11 11 13 14 15 15 14 14 14 13 14 12 12 11 12 13 13 13 13 13 11 16 13 11 13 13 13 13 12 13 12 12 12 12 11 9 10 9 12 9 8 7 7 7 7 7 8 8 6 8 8 8 8 7 7 6 7 7 6 6 6 7 6 7 7 7 7 8 7 7
12 9 6 11 6 9 1 1 5 6 5 3 4 4 4 8 9 1 5 6 7 7 6 7 10 12 12 11 12 13 14 14 14 15 14 13 13 14 15 15 13 11 10 11 12 12 13 12 13 12 11 14 14 11 10 11 12 10 10 11 13 12 11 12 10 9 9 9 9 8 8 8 8 8 8 8 8 8 8 7 7 7 7 7 6 6 6 6 6 7 6 7 6 7 8 8 7
1 8 10 2 2 5 6 2 1 5 3 1 3 3 6 7 9 10 9 6 6 6 8 11 13 13 11 11 12 14 15 15 15 15 15 15 14 16 15 15 15 14 13 12 13 12 15 13 17 13 12 12 11 12 11 11 11 10 11 12 12 12 8 9 11 10 9 9 9 10 9 9 9 8 8 9 8 9 8 8 7 7 7 7 7 6 6 6 6 6 6 7 7 9 10 9 8
10 12 10 4 1 2 1 1 2 5 3 3 2 4 4 5 6 10 13 7 6 9 10 9 9 9 9 9 11 13 14 14 14 15 15 16 14 15 14 14 13 12 11 11 12 13 13 12 14 15 17 15 12 11 10 10 10 11 13 13 12 11 13 9 11 10 10 9 9 9 9 8 8 8 9 9 9 9 9 8 9 8 8 7 7 7 6 6 6 7 7 8 8 9 10 9 9
10 10 9 8 7 9 13 8 2 1 1 2 3 4 1 6 3 9 6 4 4 7 7 6 6 7 9 10 11 12 13 14 14 14 14 14 14 14 14 13 11 12 12 14 12 11 13 13 13 14 13 13 13 11 10 10 11 11 13 13 13 12 12 11 10 10 9 9 9 9 8 8 9 9 9 9 10 9 8 9 8 8 8 8 7 7 7 6 7 8 8 6 8 10 10 9 9
Wind_Direction
321 327 313 328 218 214 222 356 296 51 322 296 307 274 44 243 239 282 329 345 26 89 312 286 164 145 203 196 176 160 112 105 168 312 17 69 37 151 157 172 150 155 158 161 159 157 155 155 161 158 154 157 148 139 137 138 138 138 134 134 131 127 127 128 125 124 124 123 121 120 116 115 117 115 112 112 111 113 108 101 97 94 93 91 88 84 81 78 77 75 76 76 77 75 73 68 63
318 320 310 288 332 306 164 313 89 271 300 304 254 32 161 274 293 344 339 5 1 347 347 53 161 86 51 77 66 111 199 11 357 39 64 81 120 130 129 156 154 153 155 160 160 157 159 158 160 157 153 156 148 140 139 140 140 138 138 135 130 129 132 130 127 126 126 127 123 118 115 115 117 114 112 114 113 109 105 101 97 94 89 87 87 87 83 80 78 77 76 77 77 75 72 68 64
327 333 331 222 37 35 112 330 270 71 298 281 275 206 92 270 298 312 292 316 26 334 318 131 167 233 194 114 139 197 51 29 106 95 81 138 135 144 148 147 151 144 151 158 159 156 158 159 159 155 152 155 148 142 141 142 141 141 140 135 132 134 133 130 129 128 129 126 125 120 115 114 115 116 113 116 114 106 105 105 100 92 86 84 85 85 83 80 77 76 77 77 77 77 73 71 69
301 319 332 331 192 319 99 97 172 228 266 277 290 193 197 237 279 286 276 282 305 338 318 164 182 127 270 240 310 123 73 144 233 156 151 176 150 139 142 146 148 143 155 159 157 155 157 158 158 155 151 155 149 144 143 144 143 141 139 137 136 135 134 133 131 129 129 130 124 121 119 116 114 114 107 109 117 109 107 105 100 94 90 85 81 79 79 78 77 76 76 77 76 76 75 75 72
321 259 334 47 189 138 137 50 253 168 246 192 264 95 164 190 286 249 283 343 301 310 335 4 273 106 313 318 110 274 99 281 168 208 109 111 120 137 141 146 149 153 157 160 157 157 154 156 157 153 151 155 151 146 145 146 145 141 139 138 137 136 135 133 131 131 131 128 124 122 122 118 114 111 105 103 112 111 107 102 101 99 95 90 85 80 78 77 76 74 72 72 71 70 70 70 64
199 279 11 282 287 69 91 186 171 213 242 160 256 276 131 197 245 241 288 320 299 278 106 290 302 18 248 68 347 107 334 185 92 187 150 143 142 142 142 146 151 155 157 159 158 160 158 155 156 153 152 154 152 148 146 146 145 143 141 139 138 137 135 134 134 134 131 127 127 127 124 123 119 114 109 107 109 107 106 105 103 100 97 92 83 79 76 73 74 72 69 65 64 63 62 61 56
288 130 6 79 95 297 251 222 229 218 231 193 260 270 266 175 246 189 286 315 205 307 102 279 189 236 242 136 120 66 340 323 223 137 180 144 139 145 145 150 152 155 157 159 160 156 156 152 152 153 152 154 153 149 147 147 147 144 142 139 138 137 135 135 135 133 131 130 128 130 131 128 125 123 113 109 103 100 101 103 104 101 92 86 81 75 70 67 65 66 66 65 61 60 58 57 53
53 237 41 218 146 277 200 224 238 179 223 204 268 272 262 126 197 224 249 256 318 315 11 29 308 20 287 113 305 85 29 355 322 121 129 146 146 145 147 149 154 156 158 157 158 157 144 149 150 154 154 155 154 151 150 149 147 145 143 140 136 134 135 137 134 133 132 131 131 130 132 132 133 131 123 113 113 110 104 105 112 104 94 90 85 77 70 66 62 61 62 63 62 59 54 53 52
16 90 327 171 191 33 167 218 242 127 311 241 264 236 279 125 237 250 232 206 309 252 284 311 94 282 22 49 166 61 42 15 108 126 141 148 151 148 148 152 155 155 159 160 159 158 150 150 154 157 156 155 155 153 153 151 148 146 143 138 135 134 136 137 133 135 132 128 130 131 134 138 137 136 136 126 121 117 112 113 116 109 100 93 86 74 67 60 58 57 57 57 56 52 47 46 48
87 281 187 189 93 217 213 218 243 208 219 211 240 260 234 159 223 229 246 242 232 280 264 6 230 245 14 299 173 163 69 127 137 137 151 153 151 148 145 152 154 155 157 159 163 158 150 153 156 158 158 155 155 156 155 152 150 148 141 135 132 133 136 136 134 132 127 125 129 135 138 140 144 147 147 142 138 118 112 111 113 109 104 94 82 74 63 57 53 49 49 47 46 42 31 24 29
167 47 17 193 184 222 213 238 233 213 226 223 264 263 260 127 186 241 203 248 79 221 135 189 210 242 276 266 270 34 174 158 156 153 155 153 151 150 143 150 154 157 157 161 161 158 154 158 156 159 158 154 154 155 154 151 146 137 132 132 129 135 134 131 132 127 124 124 128 127 128 137 151 157 154 148 140 130 124 105 105 104 100 91 83 73 59 50 41 35 34 34 35 31 17 4 356
166 173 158 221 211 216 204 237 235 245 198 130 243 243 244 178 176 242 226 232 200 225 237 152 256 180 208 320 231 180 153 175 167 151 154 151 148 148 140 150 156 160 160 159 159 160 159 157 160 160 156 154 153 151 153 147 138 134 129 126 129 132 128 128 125 126 125 126 125 126 128 133 136 137 133 137 139 140 118 108 103 99 93 85 82 71 55 38 27 18 16 15 19 15 5 352 345
217 132 174 220 200 211 171 222 240 259 232 210 233 228 120 152 200 233 242 221 186 216 235 214 218 170 239 220 47 151 180 175 162 155 154 153 147 149 143 149 157 158 160 161 161 162 161 160 161 162 159 155 153 153 150 142 137 131 129 124 128 128 130 130 130 129 125 122 121 124 123 122 123 125 127 133 140 138 125 101 100 95 89 83 79 62 47 36 17 8 5 4 4 1 355 348 342
215 203 154 224 61 205 188 206 240 251 247 203 217 155 172 176 226 257 163 235 198 217 251 216 200 200 243 72 216 192 187 170 161 157 154 150 148 149 146 150 157 159 162 164 166 163 161 163 161 162 160 160 161 157 149 142 137 132 126 125 129 134 137 133 129 127 123 122 123 123 123 123 122 124 128 128 129 122 111 105 99 95 89 82 69 56 32 20 9 2 0 0 353 347 345 343 341
207 149 201 309 174 176 187 213 205 225 258 152 197 183 179 261 128 143 186 247 248 227 45 211 185 154 236 192 211 189 182 168 160 155 150 148 149 149 147 151 157 161 163 167 165 164 164 164 163 160 164 162 163 162 156 144 142 136 129 133 137 140 138 131 128 128 128 128 126 124 128 126 123 121 121 116 112 114 109 113 103 95 87 86 60 33 22 14 7 5 360 353 343 337 335 334 334
150 152 149 208 197 197 186 212 135 234 257 192 191 131 146 148 211 173 236 242 2 80 259 172 214 272 2 213 326 164 158 154 156 152 148 147 148 147 146 154 160 164 165 165 166 167 165 166 163 165 165 164 166 163 154 152 145 139 134 139 142 141 140 132 131 132 132 128 125 123 99 109 115 112 109 117 108 103 101 94 106 105 100 96 88 56 42 16 8 360 349 337 334 328 324 324 322
104 225 203 201 222 192 160 192 162 223 253 252 113 159 175 169 142 278 333 137 237 117 66 27 327 345 291 337 97 138 148 149 152 151 150 151 153 153 155 161 166 166 167 169 167 166 168 168 168 167 167 165 166 163 153 153 148 144 143 142 146 144 138 135 133 132 132 126 126 100 109 110 107 102 100 90 105 93 105 108 102 108 107 88 72 45 17 5 357 346 339 330 324 325 327 310 310
160 200 208 216 187 193 163 186 187 176 220 251 187 182 164 161 183 136 184 72 118 112 109 57 41 41 22 94 126 137 144 152 157 157 161 159 162 161 166 171 171 173 169 169 168 167 172 171 170 169 166 167 166 162 158 156 150 157 151 150 149 145 139 137 138 135 131 126 111 120 118 119 115 112 98 95 88 96 99 82 83 99 96 44 25 360 2 346 342 339 334 334 329 331 311 311 343
193 172 200 220 169 192 162 191 184 153 223 313 24 142 180 177 159 148 204 192 181 169 97 64 64 63 85 116 132 141 151 156 162 167 166 167 171 170 170 172 176 171 172 172 170 171 177 172 172 173 167 166 167 162 160 159 153 154 154 152 146 145 139 137 137 135 130 124 124 122 119 112 117 112 101 76 77 78 70 72 72 82 106 21 352 5 10 352 337 338 344 342 320 273 266 359 336
213 180 208 222 159 182 212 185 192 242 42 142 130 23 132 138 221 147 252 174 205 226 174 166 156 125 130 134 148 150 159 164 170 171 174 175 175 169 171 173 175 175 172 172 172 175 178 176 174 174 168 166 166 165 161 158 155 157 157 153 148 145 140 140 137 136 131 124 125 119 117 114 99 100 13 346 67 90 102 131 84 97 91 83 360 265 244 335 316 248 54 322 279 3 3 352 351
155 212 219 197 176 200 201 205 221 209 140 110 117 162 74 187 212 239 175 216 207 251 206 191 179 164 154 160 160 165 168 170 175 178 178 178 177 173 174 177 175 172 171 169 173 177 177 176 172 173 170 169 168 164 164 160 157 161 158 153 150 148 146 145 141 138 131 129 127 122 114 101 73 70 40 23 22 54 61 77 102 85 79 102 210 73 29 78 253 40 58 51 29 12 9 10 356
131 220 181 126 140 220 168 206 196 165 188 159 106 202 235 98 207 198 186 257 261 290 171 210 161 164 165 171 172 172 175 177 180 181 182 181 178 177 178 175 170 168 170 176 178 176 178 176 173 170 171 171 168 167 168 162 161 165 159 152 153 153 155 153 147 142 139 140 136 127 121 103 54 2 322 349 29 24 53 62 72 63 42 43 20 58 58 40 45 50 44 35 36 20 10 3 357
212 187 217 150 172 201 197 203 197 178 163 182 191 227 97 226 178 264 238 246 262 132 21 196 163 171 178 172 170 177 179 185 186 185 182 182 183 182 176 174 171 174 177 180 176 175 178 176 174 170 172 171 169 172 169 167 169 164 160 156 159 161 161 159 155 150 147 147 145 138 130 92 74 349 343 348 70 59 75 73 72 69 59 59 51 44 64 59 40 47 48 44 28 14 4 5 353
240 207 143 198 151 206 144 187 168 190 198 217 188 85 222 91 251 116 232 234 258 296 231 194 168 168 171 175 182 184 185 186 188 189 188 187 184 180 174 169 172 171 176 177 177 174 178 176 176 174 173 171 170 174 173 171 169 164 156 159 168 158 164 163 158 156 154 155 151 149 122 83 50 21 44 131 107 100 81 72 83 91 81 75 60 16 30 37 47 54 48 37 15 14 4 359 355
206 222 173 169 190 212 188 156 110 116 214 79 188 238 234 213 253 130 234 264 309 265 159 157 157 168 179 184 185 187 186 190 190 190 192 195 186 177 175 171 171 173 175 175 177 177 178 174 178 181 173 172 170 175 176 172 166 161 162 170 164 165 168 161 159 161 163 156 159 157 141 127 140 129 101 113 127 101 99 96 88 76 72 68 53 47 14 26 48 42 37 19 19 5 359 2 353
209 200 172 161 185 207 220 239 237 222 244 159 171 221 235 231 70 243 254 283 261 157 144 152 162 173 184 190 186 187 189 191 191 193 193 187 181 180 181 179 172 177 176 172 174 177 179 177 180 183 179 174 171 173 177 174 169 168 171 170 168 170 164 159 162 166 161 172 161 176 182 193 185 114 125 121 109 105 101 104 96 85 75 59 31 30 24 25 31 37 30 17 1 357 359 11 343
170 196 198 207 211 178 154 199 215 163 204 166 213 188 226 122 180 230 125 239 173 159 152 162 172 184 187 188 190 192 191 193 194 190 187 188 189 192 187 183 181 176 168 170 173 175 179 179 184 185 183 175 173 176 177 176 172 175 174 170 171 173 161 159 169 166 168 172 170 212 242 227 178 172 143 130 112 113 106 100 104 104 73 59 28 45 68 49 53 46 27 10 2 356 356 354 348
163 191 191 218 233 230 164 190 185 146 199 187 205 242 255 219 197 243 175 175 181 161 168 175 186 188 192 195 193 194 195 196 195 192 193 190 193 190 185 185 181 172 171 172 172 174 177 185 185 183 184 175 174 176 179 177 175 178 170 169 175 170 163 169 170 172 164 166 183 235 188 176 167 146 138 152 131 124 118 114 115 97 84 80 68 70 79 73 62 54 52 37 17 349 343 349 352
168 162 186 211 226 240 223 223 200 175 220 174 193 231 225 167 216 204 158 173 187 183 175 183 191 194 196 200 198 196 197 196 197 202 203 198 187 184 186 186 173 168 176 173 168 172 179 184 184 184 183 174 173 175 179 173 181 178 173 173 169 168 171 174 172 167 156 141 196 187 174 153 160 157 162 150 122 121 125 127 117 104 89 81 77 85 93 92 45 21 40 8 3 345 339 355 352
128 181 189 163 202 232 223 203 206 197 215 162 154 229 230 205 198 122 167 179 186 190 184 188 195 199 201 201 202 200 200 199 204 207 204 198 190 183 185 175 172 172 168 176 174 175 177 184 182 184 179 179 172 183 181 181 189 180 175 170 167 171 174 173 170 165 152 170 173 177 151 136 165 164 154 123 120 126 130 130 125 111 95 93 94 4 41 32 28 29 18 350 6 337 346 3 359
192 144 189 209 181 221 151 182 164 207 174 180 194 244 237 191 207 166 180 185 179 191 193 191 197 201 203 204 203 205 207 209 210 208 207 201 186 187 192 170 174 175 164 170 179 179 178 178 177 180 179 181 184 188 190 189 192 189 177 172 171 177 171 176 164 153 167 165 161 165 154 164 183 163 144 128 121 133 134 132 131 110 112 120 96 53 13 54 43 33 17 358 347 350 354 5 8
174 154 209 193 213 148 154 191 169 200 165 197 197 243 252 203 168 177 182 189 192 192 191 193 197 202 203 204 206 209 214 215 217 214 211 202 189 191 183 174 174 177 179 175 179 177 179 177 174 179 181 190 190 191 193 189 188 189 182 176 171 173 172 170 163 163 156 145 163 162 165 174 173 145 139 133 130 135 140 129 101 95 102 103 79 66 20 29 35 43 45 16 354 358 355 0 2
203 207 142 191 196 193 159 179 192 196 155 199 202 235 255 233 205 181 183 187 197 201 195 194 200 206 205 206 206 211 216 219 220 217 210 204 204 203 185 171 175 183 180 174 178 178 180 177 177 178 183 186 191 194 194 193 180 179 179 168 161 162 164 161 156 156 159 155 161 162 169 166 148 131 128 122 119 126 120 103 93 97 98 92 88 65 45 29 25 41 58 41 14 355 356 356 360
191 203 182 144 184 173 211 103 221 203 175 189 206 226 239 94 320 193 183 188 191 204 199 200 204 209 210 207 209 212 216 220 221 214 208 204 204 200 194 177 177 178 181 178 180 182 180 178 180 181 182 179 186 187 192 183 177 170 164 147 141 149 152 153 157 168 166 156 152 162 158 144 136 128 123 116 107 101 102 105 104 94 95 93 85 63 50 37 39 23 55 43 23 10 7 359 352
159 163 157 142 171 194 196 182 174 182 200 195 190 213 234 205 91 179 191 193 191 198 199 200 204 212 212 211 212 217 219 223 227 212 205 199 198 191 187 180 174 177 178 181 186 186 179 178 180 180 176 179 183 184 178 170 156 151 141 140 128 126 131 145 161 164 160 157 159 150 146 131 131 131 129 124 119 121 118 106 100 87 92 93 91 79 59 41 47 44 37 43 41 33 14 4 346
150 167 175 158 178 192 201 188 128 183 190 206 184 202 224 194 156 180 196 202 204 209 203 199 207 213 214 215 219 219 222 229 226 204 186 189 194 188 183 183 176 178 178 184 183 182 180 176 179 180 182 184 184 178 174 170 168 165 156 136 127 123 128 145 161 164 161 166 150 145 139 128 131 134 127 113 111 113 115 103 97 91 90 94 86 52 23 18 21 38 49 34 29 30 34 1 356
147 160 162 183 186 178 21 254 156 203 178 203 190 205 222 207 170 190 195 197 208 215 216 213 215 216 217 219 222 221 223 230 217 199 178 184 189 184 181 178 182 179 184 181 179 180 181 177 176 181 180 179 181 178 174 169 171 159 154 159 149 135 137 146 151 160 165 158 143 140 133 129 136 127 115 115 114 110 107 105 102 92 87 81 68 53 30 27 30 44 58 43 22 16 28 3 2
152 169 180 173 195 197 176 189 169 197 196 196 199 206 221 217 173 194 186 191 204 206 209 213 215 217 220 223 225 224 227 229 196 165 167 180 183 184 174 175 177 181 188 184 182 180 181 177 177 177 178 178 176 164 134 126 138 160 168 161 144 136 145 161 159 160 158 154 138 130 130 136 132 118 109 105 110 119 117 111 101 99 93 81 69 60 57 64 59 52 13 30 38 32 40 9 3
163 173 180 169 183 69 129 255 170 171 204 202 170 209 224 209 130 183 189 195 205 204 203 203 204 211 219 223 227 228 228 229 217 215 185 188 184 177 177 179 183 189 188 188 187 182 181 179 177 174 177 171 162 139 134 127 141 147 161 159 150 130 143 151 149 148 149 146 140 125 127 130 123 110 107 104 105 103 110 109 105 100 90 103 114 95 59 50 39 39 25 360 36 69 57 35 27
167 160 172 193 142 173 170 156 145 159 199 212 173 204 224 94 106 211 217 204 209 208 213 221 220 218 215 217 217 223 229 229 225 217 209 191 184 177 175 183 183 186 184 190 189 187 185 184 177 174 172 166 155 146 151 157 151 143 143 141 128 137 143 137 130 135 139 133 121 117 116 119 114 109 104 108 107 105 104 107 112 107 103 86 76 88 65 55 36 27 26 34 347 64 55 54 41
78 182 177 158 160 197 166 148 144 69 87 74 126 202 239 209 185 199 230 228 222 219 223 229 230 234 237 242 240 232 230 226 225 215 199 195 181 181 176 184 178 187 191 189 187 186 144 190 183 175 169 164 160 160 152 142 136 128 121 115 115 114 117 130 139 142 146 128 126 123 111 111 109 104 104 105 111 104 99 107 109 106 102 81 75 84 67 48 43 39 32 42 37 28 71 67 56
170 240 194 155 162 160 127 88 162 172 183 184 191 198 230 168 206 193 154 195 220 221 223 227 225 225 228 231 232 233 237 236 231 221 206 195 179 173 178 179 182 192 195 191 185 175 161 169 163 186 172 165 159 163 152 146 141 141 141 141 144 140 139 152 161 163 160 152 132 109 100 96 105 102 103 104 100 106 103 102 102 109 100 89 77 79 80 75 48 39 35 42 60 45 55 76 75
163 185 202 158 123 123 131 128 166 186 200 156 316 219 205 127 218 191 174 196 215 215 224 230 225 223 223 227 228 227 229 229 230 225 204 190 178 177 186 184 187 190 194 191 188 182 154 158 159 166 188 173 161 161 154 145 139 152 161 164 157 160 155 161 159 153 140 125 138 135 104 95 99 105 99 98 98 100 104 97 97 92 91 93 86 80 68 56 55 45 44 57 54 54 50 76 54
181 137 169 153 144 138 123 104 187 76 34 56 217 230 240 208 198 62 169 199 210 212 225 231 223 219 221 224 224 223 225 226 226 220 204 188 179 185 187 186 181 190 185 183 188 186 171 174 165 161 175 179 166 156 145 135 138 151 155 153 155 162 166 160 152 129 132 141 137 129 122 108 100 101 103 96 101 109 108 105 103 99 96 87 81 72 67 62 73 69 62 64 64 56 54 67 70
155 155 160 168 162 140 117 147 105 33 228 200 174 137 213 238 148 88 159 193 222 228 225 226 224 223 225 228 230 230 229 228 224 217 206 198 181 185 187 187 184 179 180 184 187 186 186 177 168 157 173 174 162 155 142 144 152 161 157 156 149 152 141 138 140 148 143 138 131 133 123 115 105 92 90 102 109 112 109 108 106 103 98 87 81 83 73 65 61 62 60 61 64 65 62 62 70
167 122 124 104 111 115 203 173 203 130 207 214 177 175 219 229 142 166 175 233 224 223 223 227 223 219 220 221 225 225 225 226 220 216 204 192 180 181 185 185 178 178 178 186 188 188 193 186 165 151 170 153 156 159 149 153 157 160 155 157 148 140 135 134 143 146 144 139 131 144 122 121 112 97 89 97 105 106 103 106 102 97 94 85 80 80 81 72 64 65 62 68 69 73 64 62 63
122 135 130 113 101 171 92 5 279 215 242 217 147 177 229 245 184 182 173 212 215 221 230 227 224 222 220 221 219 215 215 214 210 198 190 189 177 177 175 184 183 174 179 185 189 191 194 187 149 140 124 151 166 167 162 162 165 163 157 158 148 146 145 147 150 153 146 141 150 151 137 127 111 103 110 104 101 106 114 108 97 94 89 89 88 83 74 74 75 76 76 71 63 63 66 72 70
156 167 163 130 115 121 161 129 194 218 235 147 193 184 185 227 176 204 209 200 199 206 216 217 214 211 212 211 210 206 208 210 204 186 178 182 177 176 176 183 178 174 177 187 193 194 191 152 100 104 142 154 162 171 169 165 163 157 148 150 147 150 154 159 160 153 152 148 150 151 140 132 122 117 123 122 126 132 126 110 98 98 92 87 82 78 77 79 81 77 72 68 68 64 65 66 62
180 165 162 182 168 156 188 174 202 215 209 99 125 166 181 236 253 257 228 235 235 229 233 228 218 215 206 198 195 191 198 198 193 181 180 180 182 180 180 180 175 175 178 185 192 192 153 106 125 157 166 162 155 169 180 167 160 157 157 156 147 153 152 155 157 152 153 150 143 138 147 147 142 145 144 138 135 136 118 113 110 104 98 86 87 84 79 79 81 79 75 72 65 62 59 61 63
182 177 176 181 171 185 196 191 27 104 242 321 111 131 258 46 269 231 248 240 228 226 227 236 234 214 182 181 181 183 192 191 185 182 186 189 190 186 182 177 176 171 173 179 182 173 129 127 150 170 167 162 158 169 173 148 133 149 150 144 144 144 146 152 155 151 151 150 140 142 151 151 151 151 147 142 141 130 105 102 103 98 96 96 91 87 85 80 80 83 77 74 72 71 72 72 72
180 162 182 193 180 185 176 186 182 188 173 134 296 167 229 187 218 170 214 253 322 246 246 242 230 205 178 174 176 182 189 189 184 190 189 191 192 185 178 174 173 170 177 175 177 164 144 151 168 164 165 152 149 143 100 98 102 137 164 152 153 154 152 152 148 149 146 146 140 140 144 146 145 142 139 138 139 116 111 110 108 105 100 96 95 94 89 85 84 85 82 80 78 76 77 76 72
197 159 81 172 199 79 171 124 141 151 138 131 180 215 179 209 12 151 267 261 255 245 244 230 211 173 164 171 177 183 189 188 189 191 187 192 189 183 175 171 173 177 174 175 172 167 153 160 130 144 158 141 113 100 126 156 162 171 157 153 156 153 147 144 148 139 142 147 139 140 138 137 132 127 130 134 124 121 117 113 107 103 106 101 97 96 95 92 88 90 89 89 85 79 81 79 80
174 158 194 189 91 113 95 62 15 23 115 225 107 234 245 289 276 173 183 205 210 211 202 199 184 170 168 178 180 182 190 190 187 190 190 189 180 179 179 175 175 175 175 175 175 170 160 145 147 162 162 136 125 145 166 169 164 165 161 162 155 152 155 155 152 156 147 144 131 128 129 127 125 127 137 126 123 117 118 115 112 112 107 102 98 94 98 98 95 90 91 90 87 82 81 76 75
116 202 175 73 48 28 166 172 113 197 211 200 154 202 214 227 252 97 163 219 218 204 180 184 170 171 180 182 177 180 189 192 190 191 193 190 182 178 175 172 172 173 175 174 174 169 159 144 149 148 145 153 162 164 162 165 161 159 161 165 164 163 157 151 139 151 152 141 130 122 125 131 136 135 134 126 124 120 116 117 117 114 108 106 105 107 106 103 98 91 89 86 86 89 88 83 77
187 179 118 179 184 204 157 135 170 169 196 196 191 240 259 209 229 124 205 210 223 201 180 174 185 189 192 181 175 180 186 188 189 192 189 185 177 174 173 173 168 161 167 175 172 165 160 142 129 131 166 181 170 165 164 161 159 156 162 165 167 166 162 158 154 144 146 141 134 133 135 134 128 126 129 132 128 126 124 120 120 118 116 113 113 113 113 105 102 100 95 92 88 90 89 86 81
318 132 176 360 161 202 158 229 101 175 178 155 172 181 222 196 231 247 247 205 220 159 181 201 198 195 188 178 175 184 184 189 190 188 187 187 177 176 171 166 163 170 174 172 172 169 164 138 134 162 172 175 163 169 167 154 156 156 160 164 171 169 156 146 144 150 147 139 135 136 134 137 139 134 134 135 131 132 132 129 127 127 124 121 121 116 111 109 105 101 101 96 94 96 93 91 91
172 187 178 170 256 6 349 99 224 188 166 196 177 196 232 215 214 234 245 224 193 183 201 203 200 194 187 174 178 183 185 188 190 189 189 187 175 172 168 166 166 169 174 172 169 170 160 141 150 166 170 164 160 164 165 157 160 164 163 164 167 163 161 153 146 149 141 135 131 133 137 133 131 135 139 138 136 137 137 134 134 134 131 128 126 123 119 115 108 104 99 99 102 100 99 99 99
183 187 183 179 146 158 187 193 85 252 191 176 174 220 214 219 173 218 245 80 201 207 198 188 192 187 190 188 186 184 185 189 189 190 187 182 172 170 165 165 163 172 174 173 168 163 153 151 152 162 161 157 155 160 164 162 163 165 165 166 165 164 163 157 145 143 132 131 135 136 133 132 134 139 144 140 140 139 140 140 136 135 132 129 130 127 127 121 116 110 104 103 103 103 104 105 102